Wind_Speed
17 15 17 19 18 17 15 13 17 16 18 25 13 16 18 18 17 16 16 14 15 15 18 19 23 24 22 19 18 13 14 9 8 6 6 7 7 9 11 11 11 9 10 8
16 20 21 18 20 20 19 11 12 13 16 11 16 20 18 17 17 18 17 16 16 16 16 17 18 15 17 18 21 16 13 11 9 8 8 7 7 8 10 11 8 5 6 6
20 22 22 18 16 16 16 11 10 15 12 4 12 18 13 15 15 17 18 18 17 17 19 16 19 20 19 16 18 16 14 12 11 9 8 6 7 8 9 2 4 4 3 8
23 22 21 18 17 17 18 12 18 15 14 11 15 13 18 23 18 16 18 19 19 19 18 18 21 21 21 21 18 20 15 13 10 7 2 3 4 8 3 3 3 10 10 8
22 21 23 21 19 16 12 16 18 13 11 14 14 9 15 16 16 16 19 20 20 21 21 20 21 22 23 24 21 19 17 13 13 7 3 2 5 9 7 3 6 9 12 9
22 17 19 20 20 16 18 10 17 9 11 14 17 12 6 9 17 17 9 18 20 21 21 19 26 27 23 24 22 21 19 14 12 10 7 3 0 2 4 6 6 10 6 9
23 25 15 14 18 20 18 11 8 9 11 13 15 15 10 19 22 21 20 31 21 19 18 17 19 24 25 26 22 22 20 17 15 12 8 3 2 1 4 6 7 6 10 6
16 18 20 16 21 15 13 16 9 13 12 13 13 9 16 10 15 27 25 27 22 21 19 19 17 25 27 25 24 24 23 20 17 14 10 5 3 4 3 2 1 3 7 7
18 21 21 22 17 16 15 17 18 18 13 6 7 9 11 9 9 5 9 11 18 21 20 21 20 26 27 25 25 24 23 20 19 17 13 8 7 5 5 2 2 5 4 5
18 15 21 17 16 15 16 17 13 12 9 10 8 9 10 15 10 11 9 6 7 17 21 19 18 27 29 26 24 25 23 21 21 18 15 12 10 7 7 5 5 6 8 9
25 18 19 21 15 21 15 11 9 12 10 9 9 4 13 11 8 7 7 8 4 9 15 18 15 26 30 29 27 25 23 21 20 18 15 10 7 8 9 7 7 8 9 9
25 8 13 27 20 23 21 16 10 9 9 8 9 5 13 11 10 9 7 3 6 2 11 16 15 24 27 27 27 26 25 22 20 18 15 12 9 9 7 7 7 8 9 10
18 13 10 14 19 20 18 16 20 17 13 13 11 5 7 7 7 6 5 5 6 9 8 14 14 15 25 28 27 28 26 24 21 18 16 13 11 11 10 9 8 8 9 11
15 19 13 14 16 17 22 22 22 19 12 14 12 6 11 11 9 9 6 5 7 9 9 14 13 15 26 29 29 27 27 25 23 23 19 17 16 13 11 10 10 9 12 12
14 11 16 18 20 19 17 23 21 20 19 17 11 8 3 3 8 2 2 3 6 5 12 14 16 15 23 26 28 27 26 22 22 20 15 14 14 14 13 13 12 13 13 14
11 8 11 18 18 18 21 23 23 24 23 23 20 16 21 14 11 7 1 5 7 5 8 8 17 16 20 26 28 27 25 21 16 19 18 15 15 16 16 15 13 14 13 11
14 13 13 16 17 20 20 21 21 18 17 15 13 5 12 11 4 2 2 4 6 7 7 10 10 12 20 28 29 28 24 23 22 18 16 16 16 15 16 16 16 13 10 13
10 14 12 14 17 20 17 19 17 14 15 15 16 17 8 7 2 2 1 5 4 7 8 9 7 12 22 28 28 27 25 25 23 23 20 19 18 18 18 19 16 12 12 14
12 5 11 14 15 14 20 6 8 15 16 10 7 9 4 7 3 6 11 5 0 4 5 7 10 14 24 28 29 27 25 24 22 23 23 21 20 20 20 19 16 13 14 16
23 27 18 4 11 18 15 10 6 17 12 18 19 3 10 6 5 6 9 5 2 3 3 6 7 12 25 27 28 26 25 25 26 26 24 22 21 20 19 18 15 12 14 17
14 8 11 11 12 17 13 6 13 7 9 14 2 8 6 4 7 8 5 4 3 4 5 6 8 12 22 24 28 25 24 21 26 24 22 22 22 20 17 13 11 12 18 19
16 4 9 12 15 17 11 9 10 8 8 7 10 11 8 5 6 8 11 5 8 7 8 10 10 17 19 21 22 24 23 25 17 17 16 16 18 17 13 11 8 14 12 15
9 9 7 3 2 20 12 16 15 7 8 8 6 5 6 7 9 9 8 13 9 8 9 11 14 15 19 23 15 12 8 4 3 6 9 11 8 9 9 8 5 11 16 19
6 7 0 5 7 5 10 15 13 10 5 3 4 4 6 9 10 9 8 11 6 8 11 11 13 14 14 17 14 6 6 3 3 6 7 7 7 7 11 14 15 17 10 2
12 5 5 11 11 12 13 10 7 8 8 9 9 9 11 11 9 9 7 2 7 9 14 20 21 23 27 21 27 26 22 10 6 8 5 8 10 12 17 2 7 3 4 2
7 3 1 9 10 9 11 7 12 10 10 9 11 10 10 11 11 5 8 9 11 14 15 18 18 16 18 10 6 12 8 6 5 6 9 9 9 11 3 9 7 7 2 4
Wind_Direction
204 213 218 216 203 227 212 221 157 244 155 163 174 172 176 185 162 175 172 177 176 175 157 159 164 170 176 170 162 150 167 171 184 190 200 233 243 245 257 257 259 268 273 286
195 216 221 221 213 233 237 205 204 203 154 179 154 183 190 189 173 174 177 182 185 171 153 162 153 173 162 159 157 164 167 179 193 199 204 217 234 258 247 245 235 253 284 278
207 212 232 232 215 229 251 238 222 199 150 178 199 155 137 259 195 174 181 183 184 174 166 168 169 178 171 160 158 165 170 177 186 196 212 224 231 243 246 349 176 128 308 313
226 212 221 234 231 206 232 217 261 229 176 212 180 230 168 218 188 195 190 183 187 180 172 172 180 181 172 164 168 165 174 174 171 174 355 114 340 291 334 334 352 333 337 303
214 232 211 224 234 231 240 227 231 238 240 235 231 231 159 185 188 198 201 191 194 181 181 178 185 181 173 165 171 162 171 161 148 155 141 76 1 2 3 359 319 314 294 274
237 218 224 210 227 221 222 255 205 224 253 252 228 216 159 180 211 215 253 215 196 188 184 182 180 174 173 166 172 166 156 160 159 160 155 152 198 345 330 330 320 278 339 295
221 232 200 209 204 214 213 206 208 226 231 242 238 223 237 176 216 206 176 229 196 191 186 184 178 172 173 167 175 156 162 168 169 171 171 166 159 210 246 234 281 356 309 1
210 222 198 202 215 201 193 221 214 207 232 230 209 184 222 194 175 200 207 203 194 190 185 182 180 172 169 170 171 168 168 173 175 180 174 163 189 247 233 49 51 326 309 318
198 228 188 208 224 189 185 234 241 258 265 255 181 198 222 160 159 157 179 214 193 186 191 183 175 168 169 176 174 165 169 181 179 181 176 185 194 207 254 324 310 282 310 315
196 223 187 209 206 224 219 207 234 249 261 281 237 234 215 157 158 173 182 213 233 197 184 188 181 170 170 179 177 165 175 189 185 181 179 201 192 200 213 227 254 276 288 290
237 207 191 193 192 216 208 230 217 247 229 253 256 82 100 136 155 147 166 175 192 231 201 183 182 172 171 178 177 171 175 191 189 185 182 185 192 203 205 223 241 261 277 283
236 244 250 195 195 206 226 197 214 245 254 281 303 313 132 141 152 169 123 170 151 206 273 173 181 171 170 178 177 177 178 188 194 186 183 180 192 198 212 225 246 265 278 281
220 237 245 236 199 197 222 217 214 224 241 259 255 186 121 152 143 121 122 65 163 165 166 172 189 183 175 181 182 180 183 189 190 187 177 182 192 196 212 227 246 262 271 273
216 215 230 244 231 196 201 216 233 252 235 238 233 202 179 199 169 145 189 190 186 183 199 181 190 192 184 182 180 181 183 191 190 183 187 184 188 198 211 228 242 255 267 273
217 226 238 233 259 267 239 210 219 238 263 270 249 230 212 181 200 68 54 296 269 245 197 192 192 194 185 177 177 178 180 194 185 184 178 180 185 195 206 224 236 248 263 272
193 212 234 253 253 243 252 264 208 214 225 243 253 245 197 184 155 169 316 312 294 244 257 237 196 194 177 175 177 170 177 183 179 179 187 188 197 196 206 224 235 242 256 279
192 205 223 240 242 255 257 247 251 238 227 235 259 283 107 136 133 42 13 302 293 301 286 284 208 183 173 169 170 173 176 178 189 195 198 194 201 203 213 224 232 235 262 278
229 219 207 233 243 243 249 265 252 247 241 241 216 206 140 93 18 237 127 262 293 280 280 283 220 182 167 166 171 172 174 181 189 195 201 203 203 210 216 222 231 235 245 258
343 251 213 228 232 244 252 304 37 37 325 291 256 210 164 89 331 27 5 192 81 295 293 274 259 191 168 171 171 172 174 186 194 200 203 206 208 216 221 225 230 233 237 257
197 170 253 255 248 255 263 182 89 358 311 12 14 328 176 138 284 91 61 46 8 308 280 244 226 178 161 170 165 171 179 187 197 203 205 207 214 220 226 231 224 218 236 245
231 214 240 222 248 265 287 114 103 173 248 310 325 74 19 357 23 18 133 169 196 233 206 203 203 171 152 166 165 173 185 199 205 203 204 209 216 218 224 223 220 241 247 282
273 262 254 247 249 247 335 95 154 79 93 36 29 32 41 11 340 335 332 247 180 202 180 182 161 136 152 172 172 178 189 209 210 208 211 215 217 217 216 225 233 258 270 265
212 169 173 309 6 329 60 93 100 86 72 48 34 353 322 293 299 303 310 312 189 181 181 185 154 153 168 180 187 162 156 161 204 206 211 224 216 197 223 244 229 243 252 256
62 8 203 141 154 144 314 64 49 51 50 19 32 341 335 327 323 325 307 304 181 183 161 174 170 155 166 145 118 113 146 152 212 241 229 217 184 209 233 245 230 239 277 310
253 103 338 271 55 231 80 71 49 45 30 20 10 358 353 340 323 309 285 245 76 66 76 76 79 73 54 36 67 61 16 30 350 276 228 233 234 234 242 272 327 76 93 49
4 114 36 73 50 61 59 30 60 29 11 13 8 353 350 336 328 330 80 79 89 85 86 88 82 87 87 88 132 130 287 221 218 232 208 234 255 290 220 153 104 81 65 325
Height
722 739 743 725 718 713 717 727 751 734 735 745 756 759 755 748 753 764 766 771 772 774 778 784 790 797 801 806 810 815 819 822 824 826 828 829 829 829 828 828 829 829 830 830
731 740 714 704 708 714 714 726 733 724 719 731 758 766 750 747 748 753 760 767 767 769 775 783 788 794 798 803 808 813 817 820 823 825 826 827 827 827 826 825 826 827 830 829
732 723 703 706 713 722 720 730 728 733 724 726 740 764 775 756 743 743 748 755 759 765 774 780 786 791 795 801 806 810 814 818 821 822 823 825 825 825 824 826 827 828 829 828
719 702 709 712 717 717 739 715 718 723 738 764 735 783 773 761 751 745 745 749 754 760 768 777 783 787 792 798 803 808 812 815 818 819 821 821 822 823 824 825 824 825 826 827
721 709 711 720 714 706 728 708 719 719 735 743 744 767 760 745 758 748 742 742 746 753 760 769 777 783 788 795 800 805 809 813 815 818 819 821 822 822 823 823 825 826 825 825
702 685 693 702 698 701 703 715 714 722 736 765 743 752 767 771 755 747 749 741 742 744 752 761 770 778 785 792 798 802 806 810 813 816 818 820 822 822 823 824 825 825 824 824
709 700 683 686 709 698 706 730 765 776 772 772 724 743 744 728 725 732 746 751 732 736 745 754 763 771 779 786 794 798 804 808 811 814 816 818 820 821 823 823 823 823 823 822
727 734 697 686 699 710 716 726 754 787 770 752 720 756 741 706 702 715 724 720 722 729 735 747 756 766 774 782 788 794 801 805 808 811 814 816 818 819 820 820 821 822 822 822
717 718 678 682 682 689 719 735 706 732 722 745 734 724 708 704 711 712 713 714 718 722 731 738 748 759 770 778 784 790 798 802 804 807 811 813 815 817 818 819 820 821 820 820
688 719 683 683 683 685 701 700 741 730 768 773 740 737 734 722 722 716 718 718 716 716 723 731 741 752 763 773 781 786 794 800 801 804 807 809 811 813 815 817 818 819 818 818
670 685 694 683 700 710 707 718 714 715 729 757 762 759 710 717 713 716 713 713 716 716 719 725 736 747 757 767 776 782 789 797 800 801 803 806 808 810 812 814 815 816 816 816
665 681 704 693 673 675 686 706 712 742 749 734 740 746 693 701 705 706 710 711 711 715 717 723 732 742 753 762 770 777 784 793 797 798 800 802 805 807 809 811 812 813 813 813
666 688 715 707 687 678 699 696 701 708 714 739 750 744 698 698 702 702 708 708 710 712 715 723 730 736 746 755 763 770 779 787 792 795 796 798 802 804 806 808 809 810 810 809
654 677 700 716 703 687 706 701 697 703 726 728 727 727 715 708 707 709 709 707 709 711 714 717 724 731 738 746 755 764 772 780 785 789 792 794 798 801 803 805 806 806 806 806
657 692 686 685 682 681 687 694 696 709 707 725 714 726 718 723 716 711 706 708 709 708 709 713 718 723 733 742 750 758 767 775 780 784 788 791 794 797 799 801 801 802 802 802
655 691 689 700 682 683 692 681 682 689 694 698 699 705 688 693 700 705 705 707 709 706 707 707 711 716 724 736 745 755 762 769 776 781 783 786 791 792 794 796 796 796 797 797
670 683 700 716 692 693 705 683 678 676 676 686 709 694 690 700 703 703 705 707 709 705 705 707 706 712 720 729 740 752 758 765 772 778 781 782 786 788 789 790 790 791 793 794
675 683 687 707 699 730 682 655 657 668 671 668 675 680 689 691 695 693 692 700 699 704 704 704 703 709 718 728 738 746 754 762 768 773 776 778 780 782 784 784 785 787 788 788
692 682 697 705 705 690 681 670 675 707 697 667 669 674 678 684 694 696 685 685 696 701 702 703 703 707 715 725 734 743 750 758 764 767 769 772 775 777 778 779 781 783 784 783
678 696 716 684 711 719 678 661 659 682 714 685 689 680 684 689 715 707 689 693 698 700 702 702 702 706 712 721 730 739 746 752 756 760 762 766 768 771 773 774 777 778 778 778
680 682 693 695 705 688 659 661 663 732 736 695 690 689 692 699 699 691 690 694 697 701 703 704 705 707 713 721 727 735 742 746 749 753 757 760 763 765 767 769 771 772 773 773
686 693 691 685 699 709 659 675 701 700 689 690 686 688 691 695 694 693 691 691 693 698 700 704 707 711 716 721 726 732 737 741 746 749 752 755 758 760 762 765 768 770 769 770
688 692 718 708 729 711 679 682 686 691 693 695 695 694 697 699 696 693 692 690 690 693 699 703 706 712 716 720 723 728 733 738 743 747 750 753 755 757 759 761 762 764 766 765
686 687 693 713 724 724 699 678 686 689 694 692 692 695 694 696 692 689 689 690 689 691 696 703 708 711 716 719 724 730 729 735 740 745 748 750 752 753 756 756 753 754 760 761
700 697 708 693 721 705 693 691 690 690 692 693 691 691 691 690 690 687 688 690 692 695 698 704 711 719 725 733 720 715 720 738 745 749 748 751 751 750 750 754 749 751 752 759
670 698 696 708 694 698 702 697 692 699 701 697 697 695 692 693 691 686 691 694 698 704 708 712 718 724 732 736 735 727 737 740 745 747 747 749 749 749 747 751 754 753 756 758